ICS-EF (ISS DEB) (45265 NORAD) Tracking and Keplerian Element Data

This shows tracking and keplerian element data for the satellite.

Feedback or suggestion? Click here.




ElementValue
Catalog45265
NameICS-EF (ISS DEB)
Epoch Orbit6897
Epoch Day130.81320568
Epoch Year2021
RAAN163.2825
Inclination51.64
Eccentricity0.0005308
Argument of Perigee129.3036
Mean Anonmoly230.8425
Mean Motion15.52164171
Decay Rate2.252E-05
L11 45265U 98067RJ 21130.81320568 .00002252 00000-0 44126-4 0 9994
L22 45265 51.6400 163.2825 0005308 129.3036 230.8425 15.52164171 68974

Live tracking and technical data element details for ICS-EF (ISS DEB) (NORAD 45265). ICS-EF (ISS DEB) can be tracked NOW for your location showing map with azimuth and elevation plus other details from your city location.

Track the satellite on the map from your city or location and see movement details for azimuth, elevation, latitude, longitude, range, height, and movement on the map or in text.







IsCatalogInMostPopularTable: catalog: 45265, numindb: 25318
Update: records affected: 1



GetName: 45265 ICS-EF (ISS DEB)

Hit Count: updated at: Tue, 11 May 2021 20:53:41 GMT